Probability
1 1 2 2 1 1 1 0 0 0 0 0 0 0 0 0 0 0 0 0 0 0 0 0 0 0 0 0 0 0 0 0 0 0 0 0 0 0
1 1 1 1 1 1 0 0 0 0 0 0 0 0 0 0 0 0 0 0 0 0 0 0 0 0 0 0 0 0 0 0 0 0 0 0 0 0
1 1 0 0 1 1 0 0 0 0 0 0 0 0 0 0 0 0 0 0 0 0 0 0 0 0 0 0 0 0 0 0 0 0 0 0 0 0
2 1 0 0 0 0 0 0 0 0 0 0 0 0 0 0 0 0 0 0 0 0 0 0 0 0 0 0 0 0 0 0 0 0 0 0 0 0
1 1 0 0 0 0 0 0 0 0 0 0 0 0 0 0 0 0 0 0 0 0 0 0 0 0 0 0 0 0 0 0 0 0 0 0 0 0
0 0 0 0 0 0 0 0 0 0 0 0 0 0 0 0 0 0 0 0 0 0 0 0 0 0 0 0 0 0 0 0 0 0 0 0 0 0
0 0 0 0 0 0 0 0 0 0 0 0 0 0 0 0 0 0 0 0 0 0 0 0 0 0 0 0 0 0 0 0 0 0 0 0 0 0
0 0 0 0 0 0 0 0 0 0 0 0 0 0 0 0 0 0 0 0 0 0 0 0 0 0 0 0 0 0 0 0 0 0 0 0 0 0
0 0 0 0 0 0 0 0 0 0 0 0 0 0 0 0 0 0 0 0 0 0 0 0 0 0 0 0 0 0 0 0 0 0 0 0 0 0
0 0 0 0 0 0 0 0 0 0 0 0 0 0 0 0 0 0 0 0 0 0 0 0 0 0 0 0 0 0 0 0 0 0 0 0 0 0
0 0 0 0 0 0 0 0 0 0 0 0 0 0 0 0 0 0 0 0 0 0 0 0 0 0 0 0 0 0 0 0 0 0 0 0 0 0
0 0 0 0 0 0 0 0 0 0 0 0 0 0 0 0 0 0 0 0 0 0 0 0 0 0 0 0 0 0 0 0 0 0 0 0 0 0
0 0 0 0 0 0 0 0 0 0 0 0 0 0 0 0 0 0 0 0 0 0 0 0 0 0 0 0 0 0 0 0 0 0 0 0 0 0
0 0 0 0 0 0 0 0 0 0 0 0 0 0 0 0 0 0 0 0 0 0 0 0 0 0 0 0 0 0 0 0 0 0 0 0 0 0
0 0 0 0 0 0 0 0 0 0 0 0 0 0 0 0 0 0 0 0 0 0 0 0 0 0 0 0 0 0 0 0 0 0 0 0 0 0
0 0 0 0 0 0 0 0 0 0 0 0 0 0 0 0 0 0 0 0 0 0 0 0 0 0 0 0 0 0 0 0 0 0 0 0 0 0
0 0 0 0 0 0 0 0 0 0 0 0 0 0 0 0 0 0 0 0 0 0 0 0 0 0 0 0 0 0 0 0 0 0 0 0 0 0
0 0 0 0 0 0 0 0 0 0 0 0 0 0 0 0 0 0 0 0 0 0 0 0 0 0 0 0 0 0 0 0 0 0 0 0 0 0
0 0 0 0 0 0 0 0 0 0 0 0 0 0 0 0 0 0 0 0 0 0 0 0 0 0 0 0 0 0 0 0 0 0 0 0 0 0
0 0 0 0 0 0 0 0 0 0 0 0 0 0 0 0 0 0 0 0 0 0 0 0 0 0 0 0 0 0 0 0 0 0 0 0 0 0
0 0 0 0 0 0 0 0 0 0 0 0 0 0 0 0 0 0 0 0 0 0 0 0 0 0 0 0 0 0 0 0 0 0 0 0 0 0
0 0 0 0 0 0 0 0 0 0 0 0 0 0 0 0 0 0 0 0 0 0 0 0 0 0 0 0 0 0 0 0 0 0 0 0 0 0
0 0 0 0 0 0 0 0 0 0 0 0 0 0 0 0 0 0 0 0 0 0 0 0 0 0 0 0 0 0 0 0 0 0 0 0 0 0
Wind_Speed
1 2 2 1 1 1 2 3 3 3 2 2 2 1 2 3 5 4 5 7 8 7 6 5 5 4 5 5 5 5 4 4 3 3 3 2 2 3
2 2 2 2 1 1 2 1 1 2 2 2 2 2 3 3 5 3 5 9 7 7 6 5 5 4 4 4 4 4 3 3 2 2 2 2 2 2
3 3 3 2 2 1 1 1 1 2 3 2 2 3 3 3 3 2 4 4 4 7 6 6 5 5 5 5 4 4 4 3 3 3 3 2 1 1
3 4 3 3 3 1 1 2 1 2 4 5 3 2 3 3 3 2 3 4 4 7 7 7 7 7 6 6 5 5 4 4 4 4 3 3 3 3
4 4 4 4 3 2 2 2 2 3 3 5 4 2 2 3 3 2 1 2 4 6 7 7 7 8 8 7 7 6 6 6 5 5 5 5 5 5
5 5 4 5 4 3 3 3 3 3 4 4 4 3 2 2 2 2 1 1 1 4 5 6 7 8 8 8 8 8 8 8 7 7 6 6 6 6
5 5 5 7 7 4 4 3 3 3 2 3 3 2 2 2 2 1 2 2 1 2 2 4 4 4 5 8 9 10 10 9 9 8 8 7 7 7
5 4 5 6 7 7 6 6 4 3 3 2 3 3 2 1 1 1 1 1 1 1 2 2 4 5 5 5 10 12 12 11 11 10 9 8 8 8
4 4 5 7 7 5 4 4 4 4 2 2 3 2 2 2 1 1 1 1 1 2 1 2 2 3 4 6 13 14 13 12 12 11 10 10 9 9
5 6 6 6 7 5 3 4 5 4 3 3 3 3 3 2 2 1 1 1 1 2 2 1 2 2 2 2 10 12 13 12 12 11 11 10 10 10
7 8 7 6 9 9 5 5 5 4 5 6 5 3 3 2 2 1 1 1 1 1 1 1 1 1 1 2 6 12 13 13 12 12 11 11 11 9
4 6 10 8 9 9 5 5 5 4 3 3 2 1 1 2 2 1 1 1 1 0 1 1 1 1 1 1 2 4 6 10 12 13 13 13 11 5
3 4 5 8 9 8 5 3 3 1 1 0 1 2 2 2 2 2 2 1 1 1 1 1 1 1 1 2 2 3 4 4 5 7 11 14 13 9
4 4 3 5 6 6 4 4 4 3 1 1 0 1 1 1 1 2 2 2 2 2 2 1 1 1 1 2 2 2 2 4 4 5 5 8 11 14
3 3 2 3 4 3 2 4 3 2 1 1 1 0 1 1 1 1 2 2 3 4 3 3 3 2 1 2 2 2 2 3 3 3 3 4 5 5
2 3 3 3 3 3 2 2 1 1 1 1 1 0 1 1 1 1 1 2 2 2 3 4 4 3 2 3 3 3 3 3 3 3 3 3 4 5
5 3 2 1 2 2 1 1 1 1 0 1 1 1 1 1 1 1 1 1 2 2 2 2 3 4 5 4 3 4 3 3 3 3 3 3 4 5
4 3 2 1 1 1 0 0 0 0 1 1 1 1 1 2 2 1 1 2 2 2 2 2 2 2 2 3 4 4 3 3 3 3 2 3 4 4
3 3 2 0 0 1 1 0 1 1 1 1 1 2 2 2 2 2 2 2 2 2 2 2 2 2 3 3 3 3 2 3 3 3 4 4 4 4
3 3 2 1 0 1 1 1 1 1 1 2 2 2 2 2 2 3 2 2 2 2 3 3 3 2 2 2 3 4 7 5 4 5 5 4 4 5
2 2 1 1 1 1 1 1 1 1 1 1 2 2 2 2 2 3 3 3 3 3 3 3 3 3 3 3 3 4 5 8 9 6 4 4 4 4
2 1 1 1 1 1 1 1 1 1 1 2 1 2 2 2 3 3 3 3 3 3 4 3 4 3 3 4 5 5 5 5 7 11 12 9 5 5
1 1 2 2 2 2 1 1 2 2 2 1 2 2 2 2 3 3 3 3 4 4 4 4 3 3 4 4 4 5 6 6 4 4 5 10 15 17
Wind_Direction
32 52 62 72 97 103 128 161 156 160 164 155 148 149 144 132 148 149 144 145 146 142 139 136 135 145 146 142 140 136 133 130 128 128 117 111 92 82
45 59 62 56 75 106 138 170 170 158 150 154 157 157 151 146 154 159 149 156 158 157 156 154 153 150 152 159 158 158 156 160 165 154 138 126 114 99
39 56 65 64 66 75 102 103 86 107 121 119 119 129 134 138 137 148 144 161 167 172 175 170 167 172 179 181 184 188 191 195 192 186 180 173 175 194
42 55 56 57 65 70 72 81 93 111 129 131 131 137 143 146 147 160 168 173 162 170 177 177 181 187 189 189 193 195 198 201 207 209 213 221 235 247
45 53 52 53 51 52 63 68 73 86 106 125 133 136 138 151 145 171 190 151 172 168 180 188 193 194 194 195 198 199 201 205 211 218 223 229 237 246
46 49 51 52 47 46 62 63 78 91 104 118 126 134 132 142 144 167 191 182 190 178 178 185 196 201 204 204 205 206 208 212 217 224 228 231 235 242
53 55 61 70 62 54 62 56 68 91 108 124 128 123 124 137 160 194 180 185 209 174 170 190 186 198 209 216 216 216 216 217 221 225 228 233 237 243
52 56 68 75 73 68 71 72 73 84 84 97 115 122 124 125 125 157 152 146 190 199 176 217 188 197 205 202 207 211 215 219 222 225 228 232 237 241
40 44 50 54 48 50 70 89 79 78 103 107 103 111 111 110 105 105 93 128 183 212 192 240 216 204 214 204 195 204 211 216 221 225 228 231 235 240
45 50 60 52 32 19 51 74 76 64 70 87 83 82 84 69 55 83 163 241 260 234 186 224 240 236 230 176 194 202 211 217 222 226 229 233 237 242
50 48 52 55 28 26 41 60 70 69 78 90 92 94 93 82 52 24 318 289 269 244 207 213 246 239 228 206 206 208 214 218 223 226 230 234 239 244
67 72 57 44 28 30 38 45 51 38 43 89 111 152 188 203 220 257 297 325 332 308 235 235 275 280 283 252 205 191 217 229 229 231 233 235 234 228
59 63 50 33 28 23 28 46 60 2 343 343 193 190 197 202 202 213 226 221 355 329 297 349 324 314 285 280 257 207 200 210 214 228 232 233 229 216
41 56 51 22 12 4 11 20 6 349 288 283 150 162 187 186 188 198 214 233 231 242 261 253 259 268 274 284 282 258 232 219 207 209 210 219 227 228
26 23 359 334 330 324 327 330 335 323 318 360 11 62 157 177 191 208 228 241 255 253 243 226 221 242 251 260 269 265 260 250 227 216 211 202 210 209
350 319 287 295 300 313 321 294 270 325 353 346 321 266 192 196 233 223 217 232 254 265 243 222 222 225 245 256 247 255 252 244 239 226 219 224 222 214
333 302 269 241 239 244 248 230 214 211 252 279 302 308 295 278 263 245 236 249 264 273 270 249 234 225 229 236 252 256 254 247 239 229 227 241 246 238
338 297 295 292 291 288 280 299 131 337 324 353 340 320 330 332 316 305 290 277 278 281 283 272 268 274 275 268 240 244 258 256 250 245 247 252 259 255
292 280 282 296 292 306 328 23 7 5 353 338 335 330 327 321 317 315 310 307 303 298 295 294 290 283 292 296 298 255 253 272 277 268 252 245 250 254
251 271 277 279 331 340 354 1 336 324 332 332 333 328 329 329 321 312 309 317 314 310 302 290 280 273 268 270 275 274 248 241 248 254 259 257 254 257
265 263 284 332 353 351 328 301 288 277 288 305 306 308 307 304 304 302 302 307 287 274 279 279 270 250 246 256 261 263 255 238 229 229 241 253 263 263
278 299 327 322 281 259 259 262 266 266 260 258 263 273 285 292 298 300 299 297 289 282 286 284 283 272 264 265 268 271 270 266 252 245 244 235 232 242
286 299 279 265 260 259 271 299 311 309 304 308 313 307 298 291 287 284 280 283 287 292 293 289 286 284 284 281 280 281 284 283 275 267 263 252 242 244